[[{"header":{"parameterUnit":"m.s-1","parameterCategory":1,"la1":30.2992,"la2":30.254,"lo1":-89.0895,"lo2":-89.0443,"dy":0.0025,"dx":0.0025,"nx":19,"ny":19,"refTime":"2026-05-24T03:00:00:Z","depth":0,"parameterNumber":2,"parameterNumberName":"U-component_of_WINDS"},"data":[0,0,0,-3.0475,-3.0472,-3.0287,-3.0286,-3.0098,-3.0097,0,0,0,0,0,0,0,0,0,0,0,-3.0564,-3.0564,-3.0475,-3.0472,-3.0287,-3.0285,-3.0098,-3.0097,0,0,0,0,0,0,0,0,0,0,0,-3.0564,-3.0564,-3.0564,-3.0471,-3.0287,-3.0285,-3.0099,-3.022,0,0,0,0,0,0,0,0,0,0,-3.039,-3.0508,-3.0564,-3.0564,-3.047,-3.0287,-3.0285,-3.0225,-3.0212,-3.0205,0,-3.0211,0,-3.0152,-3.0088,-3.0088,0,0,0,-3.0445,-3.0519,-3.0438,-3.0564,-3.0469,-3.0288,-3.0362,-3.0217,-3.0203,-3.0189,-3.0208,-3.02,-3.0149,-3.0087,-3.0086,-3.0142,-3.0144,0,0,-3.0455,-3.0549,-3.0448,-3.0431,-3.0467,-3.0369,-3.0357,-3.0208,-3.0234,-3.0207,-3.0194,-3.0146,-3.0086,-3.0085,-3.0141,-3.0143,0,0,0,-3.0502,-3.0557,-3.0478,-3.044,-3.0403,-3.0364,-3.0351,-3.024,-3.0207,-3.0192,-3.0143,-3.0085,-3.0084,-3.0139,-3.0142,-3.031,0,0,0,-3.0507,-3.0584,-3.0484,-3.054,-3.0407,-3.032,-3.0388,-3.0217,-3.0197,-3.0144,-3.0085,-3.0083,-3.0137,-3.014,-3.0301,-3.0373,0,0,0,-3.0564,-3.0591,-3.0576,-3.0545,-3.047,-3.032,-3.0278,-3.0211,-3.0169,-3.0087,-3.0082,-3.0136,-3.014,-3.0294,-3.0361,-3.0416,0,0,0,-3.0652,-3.0727,-3.0581,-3.0645,-3.0472,-3.0428,-3.0278,-3.0239,-3.0189,-3.0085,-3.0138,-3.0141,-3.0292,-3.0353,-3.0408,-3.048,-3.0518,0,0,-3.0799,-3.0748,-3.0779,-3.0642,-3.0649,-3.0448,-3.0476,-3.0339,-3.0243,-3.018,-3.018,-3.0304,-3.036,-3.0414,-3.0701,-3.0733,0,0,0,-3.0857,-3.0881,-3.0861,-3.082,-3.072,-3.0638,-3.0487,-3.0436,-3.0378,-3.0232,-3.0335,-3.0366,-3.0393,-3.0423,-3.045,-3.0467,-3.0159,-3.0159,-3.0158,-3.1201,-3.1076,-3.1118,-3.0971,-3.0932,-3.0776,-3.0731,-3.0635,-3.0519,-3.0545,-3.0526,-3.0716,-3.0755,-3.0774,-3.0794,-3.0553,-3.0554,-3.0554,-3.0554,-3.1405,-3.1418,-3.1263,-3.1249,-3.1115,-3.1099,-3.0949,-3.0868,-3.0831,-3.072,-3.0738,-3.063,-3.0813,-3.0823,-3.0566,-3.0564,-3.0562,-3.0561,-3.0561,-3.1617,-3.1602,-3.154,-3.1466,-3.1422,-3.1267,-3.124,-3.1118,-3.1002,-3.102,-3.0986,-3.0983,-3.0964,-3.1012,-3.1013,-3.1014,-3.1014,-3.1015,-3.1015,-3.1862,-3.1787,-3.1781,-3.168,-3.1636,-3.1563,-3.1405,-3.1356,-3.1271,-3.1184,-3.1183,-3.1064,-3.0854,-3.0804,-3.1025,-3.1023,-3.1022,-3.1021,-3.102,-3.2117,-3.204,-3.2032,-3.1989,-3.1858,-3.1821,-3.1665,-3.1577,-3.1519,-3.1509,-3.1384,-3.1249,-3.1188,-3.1165,-3.1123,-3.1412,-3.1412,-3.1412,-3.1412,-3.2297,-3.2254,-3.2217,-3.2156,-3.208,-3.1938,-3.1928,-3.1804,-3.1663,-3.1618,-3.1557,-3.1491,-3.1474,-3.1421,-3.1394,-3.1352,-3.1693,-3.1694,-3.1694,-3.2447,-3.2391,-3.2409,-3.2273,-3.2161,-3.2067,-3.2052,-3.1984,-3.1806,-3.1703,-3.158,-3.1568,-3.1458,-3.143,-3.1326,-3.1285,-3.1207,0,0]},{"header":{"parameterUnit":"m.s-1","parameterCategory":1,"la1":30.2992,"la2":30.254,"lo1":-89.0895,"lo2":-89.0443,"dy":0.0025,"dx":0.0025,"nx":19,"ny":19,"refTime":"2026-05-24T03:00:00:Z","depth":0,"parameterNumber":3,"parameterNumberName":"V-component_of_WINDS"},"data":[0,0,0,2.0266,2.0269,2.0443,2.0443,2.065,2.0652,0,0,0,0,0,0,0,0,0,0,0,2.0208,2.0209,2.0265,2.027,2.0443,2.0443,2.0649,2.0652,0,0,0,0,0,0,0,0,0,0,0,2.0207,2.0209,2.021,2.027,2.0442,2.0443,2.0649,2.0523,0,0,0,0,0,0,0,0,0,0,2.0357,2.0298,2.0208,2.021,2.0271,2.0442,2.0443,2.0517,2.0531,2.0566,0,2.0597,0,2.0628,2.0665,2.0665,0,0,0,2.0274,2.0287,2.034,2.0211,2.0273,2.0442,2.0366,2.0525,2.054,2.0584,2.06,2.0608,2.0631,2.0666,2.0667,2.0859,2.086,0,0,2.0264,2.0235,2.0329,2.0349,2.0325,2.036,2.0371,2.0535,2.055,2.0601,2.0613,2.0635,2.0667,2.0669,2.0859,2.0859,0,0,0,2.0234,2.0228,2.0277,2.0341,2.0373,2.0365,2.0378,2.0542,2.0561,2.0616,2.0637,2.0668,2.0671,2.0858,2.0859,2.0866,0,0,0,2.0228,2.0211,2.0273,2.0257,2.037,2.0461,2.0381,2.055,2.0569,2.0636,2.0668,2.0673,2.0857,2.0858,2.0864,2.0874,0,0,0,2.0199,2.0207,2.023,2.0255,2.0329,2.0459,2.0487,2.0555,2.0582,2.0665,2.0673,2.0857,2.0858,2.0863,2.0871,2.0915,0,0,0,2.0158,2.0234,2.023,2.0322,2.0327,2.0463,2.0486,2.0588,2.0661,2.0669,2.0857,2.0859,2.0862,2.087,2.0913,2.0947,2.0959,0,0,2.0237,2.0242,2.0298,2.03,2.0429,2.0438,2.0568,2.0661,2.0694,2.0801,2.0807,2.0865,2.0871,2.0915,2.1035,2.1044,0,0,0,2.0313,2.0353,2.0394,2.0463,2.0537,2.06,2.0677,2.0711,2.0804,2.0744,2.0894,2.0899,2.0925,2.0943,2.095,2.0975,2.0866,2.0866,2.0865,2.0382,2.0423,2.0518,2.0579,2.0645,2.0723,2.078,2.0839,2.0859,2.0893,2.0925,2.0993,2.1013,2.1019,2.1044,2.0947,2.0947,2.0947,2.0947,2.05,2.0563,2.0589,2.0691,2.0732,2.0817,2.0895,2.0906,2.099,2.0973,2.0999,2.0976,2.1027,2.1051,2.0948,2.0948,2.0948,2.0948,2.0948,2.055,2.0587,2.0628,2.0731,2.0806,2.0864,2.0943,2.0978,2.101,2.1036,2.1072,2.1072,2.1076,2.1051,2.1051,2.1051,2.1052,2.1052,2.1052,2.0584,2.0631,2.0695,2.0779,2.0828,2.0895,2.0974,2.1021,2.1082,2.1101,2.1101,2.1117,2.1026,2.1001,2.1056,2.1055,2.1055,2.1054,2.1054,2.0687,2.067,2.0768,2.0817,2.0918,2.0989,2.1032,2.1126,2.117,2.1208,2.1218,2.1146,2.1152,2.1147,2.1127,2.121,2.121,2.121,2.121,2.0728,2.0736,2.0844,2.0919,2.0996,2.1045,2.1153,2.1214,2.1274,2.1303,2.1296,2.1273,2.1265,2.1277,2.1268,2.125,2.1363,2.1363,2.1363,2.0794,2.081,2.0897,2.0957,2.1039,2.1107,2.1209,2.1292,2.1356,2.137,2.1326,2.132,2.1283,2.1269,2.1281,2.1267,2.1235,0,0]}]]